World > North America > United States > Illinois

Dunfermline, Illinois Regional Weather

Lat: 40.49N, Lon: 90.03W
Wx Zone: ILZ036Web Search

Ads allow us to feed your daily addiction for the world's greatest weather information. We're determined to offer quality sponsors, in the least annoying way possible.

Feedback


°F Click to change Dunfermline hourly weather to Imperial units.Click to change Dunfermline hourly weather to Metric units. °C
Dunfermline Weather Map
UTC Time: 5/7/2021, 19:33
Your Time:

Dunfermline, IL Regional Weather

Expires:202105072000;;747656
ASUS43 KLOT 071909
RWRIL 

ILLINOIS REGIONAL WEATHER ROUNDUP
NATIONAL WEATHER SERVICE CHICAGO/ROMEOVILLE IL
200 PM CDT FRI MAY 07 2021

NOTE: "FAIR" INDICATES FEW OR NO CLOUDS BELOW 12,000 FEET WITH NO
SIGNIFICANT WEATHER AND/OR OBSTRUCTIONS TO VISIBILITY.

* THESE STATIONS ARE NOT UNDER NWS QUALITY CONTROL. THEY ALSO MAY NOT
  REPORT WEATHER SUCH AS PRECIPITATION OR FOG.


ILZ025>027-034>036-040-047-049-050-058-095>099-072000-
WEST-CENTRAL ILLINOIS
  
CITY           SKY/WX    TMP DP  RH WIND       PRES   REMARKS
QUINCY         MOSUNNY   70  38  31 NW14G31   30.02F                  
GALESBURG*     MOSUNNY   60  31  33 NW17G24   30.03S                  
MACOMB*        SUNNY     65  35  32 NW24G32   30.04F                  
JACKSONVILLE*  PTSUNNY   71  34  25 W24G33    29.99F                  
PITTSFIELD*    MOSUNNY   72  35  25 W20G28    30.02F                  
$$


SKY/WX - Weather  TMP - Temperature  DP - Dew Point  RH - Relative Humidity
WIND - Wind Direction/Speed PRES - Barometric Pressure VSB - Visibility
WCI - Wind Chill Index E13G22 Wind - East Wind 13 mph/Gusts of 22 mph